NSS-11 (AAP-1)

Last updated on Oct. 31, 2020, 5:53 a.m. UTC

1 26554U 00059A   20304.82966019  .00000030  00000-0  00000-0 0  9999
2 26554   0.0194  86.6891 0003180 143.0108 284.5697  1.00270246 20695
UTC
Height (km)
Latitude
Longitude
Inclination
Orbital Period
UTC large
Height (km)
Speed (km/s)
/
Latitude / Longitude
Inclination (degrees)
Orbital Period (minutes)
Azimuth
Elevation
Range (km)
Doppler Factor
iOS Compass Heading
iOS Angle

Next 30 passes for location: Hong Kong

Rise time Rise Azimuth (degrees) Set time Set Azimuth (degrees) Duration Max altitude (degrees)

No matching passes for this satellites